Regional Weather Roundup
Issued by NWS

Home | Current Version | Previous Version | Graphics & Text | Print | Product List | Glossary On
Versions: 1 2 3 4 5 6 7 8 9 10 11 12 13 14 15 16 17 18 19 20 21 22 23 24 25 26 27 28 29 30 31 32 33 34 35 36 37 38 39 40 41 42 43 44 45 46 47 48 49 50
000
ASUS45 KPSR 010600
RWRAZ

PRELIMINARY ARIZONA REGIONAL HOURLY WEATHER ROUNDUP
NATIONAL WEATHER SERVICE PHOENIX AZ
1100 PM MST SUN AUG 31 2014

NOTE: FAIR INDICATES FEW OR NO CLOUDS BELOW 12,000 FEET WITH NO
SIGNIFICANT WEATHER AND/OR OBSTRUCTIONS TO VISIBILITY.

AZZ001>003-036-010700-
NORTHWEST ARIZONA

CITY           SKY/WX    TMP DP  RH WIND       PRES   REMARKS
KINGMAN        CLEAR     78  37  22 CALM      29.92S
6HR MIN TEMP:  77; 6HR MAX TEMP:  96;

$$

AZZ004>008-015-016-018-010700-
NORTH CENTRAL ARIZONA

CITY           SKY/WX    TMP DP  RH WIND       PRES   REMARKS
GRAND CANYON     N/A    N/A N/A N/A MISG        N/A
WILLIAMS       CLEAR     59  41  51 SE8       30.26R
PRESCOTT       CLEAR     68  44  42 SW6       30.08S
6HR MIN TEMP:  67; 6HR MAX TEMP:  85;

FLAGSTAFF      CLEAR     53  42  66 CALM      30.24S
6HR MIN TEMP:  52; 6HR MAX TEMP:  77;

PAYSON         CLEAR     68  41  37 CALM      30.12S
PAGE           CLEAR     85  27  12 W8        29.94R
6HR MIN TEMP:  85; 6HR MAX TEMP:  95;

$$

AZZ009>014-017-010700-
NORTHEAST ARIZONA

CITY           SKY/WX    TMP DP  RH WIND       PRES   REMARKS
WINSLOW        NOT AVBL
SAINT JOHNS    CLEAR     68  41  37 SW9       30.13R
6HR MIN TEMP:  68; 6HR MAX TEMP:  86;

WINDOW ROCK    CLEAR     62  35  36 CALM      30.18S
6HR MIN TEMP:  62; 6HR MAX TEMP:  84;

$$

AZZ023-010700-
GREATER PHOENIX AREA

CITY           SKY/WX    TMP DP  RH WIND       PRES   REMARKS
PHOENIX        CLEAR     98  38  12 W5        29.76R
6HR MIN TEMP:  96; 6HR MAX TEMP: 107;

DEER VALLEY    CLEAR     90  44  20 SW3       29.79R
6HR MIN TEMP:  90; 6HR MAX TEMP: 103;

SCOTTSDALE     CLEAR     91  46  21 NE3       29.81R
6HR MIN TEMP:  91; 6HR MAX TEMP: 104;

MESA-GATEWAY   CLEAR     88  39  18 CALM      29.82R
$$

AZZ027-028-010700-
SOUTHWEST MARICOPA COUNTY AND PINAL COUNTY

CITY           SKY/WX    TMP DP  RH WIND       PRES   REMARKS
CASA GRANDE    CLEAR     90  37  15 CALM      29.82R
6HR MIN TEMP:  90; 6HR MAX TEMP: 106;

$$

AZZ503-504-507>509-010700-
SOUTHEAST ARIZONA

CITY           SKY/WX    TMP DP  RH WIND       PRES   REMARKS
TUCSON         CLEAR     85  44  23 SE8       29.94R
6HR MIN TEMP:  85; 6HR MAX TEMP: 101;

NOGALES        CLEAR     68  52  56 E5        30.04R
6HR MIN TEMP:  68; 6HR MAX TEMP:  91;

SIERRA VISTA   CLEAR     74  47  38 W10       30.09S
6HR MIN TEMP:  74; 6HR MAX TEMP:  91;

SAFFORD        CLEAR     80  35  19 NW9       29.93R
6HR MIN TEMP:  79; 6HR MAX TEMP:  99;

$$

AZZ020-021-025-026-031-010700-
SOUTHWEST ARIZONA

CITY           SKY/WX    TMP DP  RH WIND       PRES   REMARKS
YUMA           CLEAR     92  61  35 S17       29.67F
6HR MIN TEMP:  92; 6HR MAX TEMP: 111;

$$

CAZ031-033-041-043-047-048-061-010700-
SOUTHERN CALIFORNIA

CITY           SKY/WX    TMP DP  RH WIND       PRES   REMARKS
DOWNTOWN L.A.  PTCLDY    73  67  81 SE6       29.81R
6HR MIN TEMP:  73; 6HR MAX TEMP:  82;

L.A. AIRPORT   CLOUDY    73  66  78 SE9       29.81S
6HR MIN TEMP:  73; 6HR MAX TEMP:  77;

SAN DIEGO      MOCLDY    70  65  84 S8        29.85R
6HR MIN TEMP:  70; 6HR MAX TEMP:  74;

BURBANK        CLEAR     73  65  75 SE7       29.82S
6HR MIN TEMP:  73; 6HR MAX TEMP:  86;

ONTARIO        CLEAR     74  63  68 W5        29.83R
6HR MIN TEMP:  74; 6HR MAX TEMP:  90;

RIVERSIDE      CLEAR     74  64  71 CALM      29.83R
6HR MIN TEMP:  74; 6HR MAX TEMP:  91;

PALM SPRINGS   CLEAR     94  43  17 NW10      29.69R
6HR MIN TEMP:  94; 6HR MAX TEMP: 110;

IMPERIAL       CLEAR     86  47  25 W9        29.66R
6HR MIN TEMP:  85; 6HR MAX TEMP: 112;

BLYTHE         CLEAR     95  56  26 SW12      29.68R
6HR MIN TEMP:  93; 6HR MAX TEMP: 110;

$$

NVZ020-UTZ003-010700-
SOUTHERN NEVADA-UTAH

CITY           SKY/WX    TMP DP  RH WIND       PRES   REMARKS
LAS VEGAS      NOT AVBL
SALT LAKE CITY CLEAR     62  35  36 SE6       29.98S
6HR MIN TEMP:  61; 6HR MAX TEMP:  74;

$$

NMZ009-TXZ055-010700-
NEW MEXICO-WEST TEXAS

CITY           SKY/WX    TMP DP  RH WIND       PRES   REMARKS
ALBUQUERQUE    CLEAR     76  35  22 VRB5      30.04R
6HR MIN TEMP:  74; 6HR MAX TEMP:  92;

EL PASO        CLEAR     86  40  19 W3        29.96F
6HR MIN TEMP:  86; 6HR MAX TEMP:  98;

$$


........................KEY........................
SKY/WX - SKY CONDITION/WEATHER
TMP    - TEMPERATURE IN FAHRENHEIT
DP     - DEW POINT IN FAHRENHEIT
RH     - RELATIVE HUMIDITY IN PERCENT
WIND   - DIRECTION AND SPEED IN MILES PER HOUR (MPH)
VRB    - VARIABLE WIND DIRECTION
PRES   - MEAN SEA LEVEL PRESSURE IN INCHES OF MERCURY
         F - FALLING PRESSURE   R - RISING PRESSURE
         S - STEADY PRESSURE
VSB    - VISIBILITY IN MILES
HX     - HEAT INDEX IN FAHRENHEIT
WCI    - WIND CHILL INDEX IN FAHRENHEIT
TC     - TEMPERATURE IN CELSIUS WHICH IS ALSO KNOWN AS
         TEMPERATURE IN CENTIGRADE
AFB    - AIR FORCE BASE
         LUKE AFB IS LUKE AIR FORCE BASE
         DAVIS-MONTHAN IS DAVIS-MONTHAN AIR FORCE BASE
NAS    - NAVAL AIR STATION
         EL CENTRO NAS IS EL CENTRO NAVAL AIR STATION
N/A    - NOT AVAILABLE



USA.gov is the U.S. government's official web portal to all federal, state and local government web resources and services.